Location: Les Moreaux
(47.2278°N, 1.4966°E)
Time: 07:09:32
(UTC+00:00)

USA 59 Rocket - Pass Details

Date: 19 May 2025
Orbit: 373 x 1695 km, 63.3° (Epoch: 18 June)

Event Time Altitude Azimuth Distance (km) Brightness Sun altitude
Exits shadow 23:55:43 16° 291° (WNW) 1,125 1.6 -22.8°
Maximum altitude 23:56:52 20° 321° (NW) 980 1.6 -22.8°
Drops below altitude 10° 23:59:08 10° 12° (NNE) 1,391 3.0 -22.8°
Sets 00:01:29 0° 31° (NNE) 2,257 4.0 -22.7°
